[[{"header":{"parameterUnit":"m.s-1","parameterCategory":2,"la1":30.2991,"la2":30.254,"lo1":-89.0895,"lo2":-89.0444,"dy":0.0017,"dx":0.0017,"nx":28,"ny":28,"refTime":"2024-07-22T03:00:00:Z","depth":"0","parameterNumber":2,"parameterNumberName":"U-component_of_CURRENTS"},"data":[0,0,0,0,0,0,0,0,0,0,0,0,0,0,0,0,0,0,0,0,0,0,0,0,0,0,0,0,0,0,0,0,0,0,0,0,0,0,0,0,0,0,0,0,0,0,0,0,0,0,0,0,0,0,0,0,0,0,-0.286,-0.286,0,-0.2867,-0.2867,-0.2867,-0.2801,-0.2799,-0.2797,-0.2795,-0.2692,-0.2691,-0.269,0,0,0,0,0,0,0,0,0,0,0,0,0,-0.2849,-0.285,-0.286,-0.286,-0.286,-0.2867,-0.2867,-0.2867,-0.2801,-0.2799,-0.2796,-0.2794,-0.2692,-0.2691,-0.269,0,0,0,0,0,0,0,0,0,0,0,0,0,-0.2855,-0.285,-0.286,-0.2827,-0.2825,-0.2867,-0.2867,-0.2867,-0.2802,-0.2799,-0.2796,-0.2793,-0.2693,-0.2691,-0.269,-0.2737,0,0,-0.2685,-0.2685,0,0,0,0,0,0,0,0,-0.2855,-0.2856,-0.2832,-0.283,-0.2827,-0.283,-0.2825,-0.2818,-0.2802,-0.2811,-0.2795,-0.2792,-0.273,-0.2725,-0.2735,-0.2732,-0.2728,-0.2685,-0.2684,-0.2684,-0.2683,0,0,0,0,0,0,0,-0.2855,-0.2855,-0.2863,-0.2832,-0.2829,-0.2833,-0.283,-0.2825,-0.2784,-0.281,-0.2805,-0.2806,-0.2727,-0.2737,-0.2732,-0.2726,-0.2685,-0.2684,-0.2683,-0.2682,-0.2728,-0.273,0,0,0,0,0,0,-0.2853,-0.2855,-0.2863,-0.2863,-0.2834,-0.2835,-0.2832,-0.2832,-0.2787,-0.2778,-0.2808,-0.2803,-0.2741,-0.2733,-0.2727,-0.2745,-0.2684,-0.2682,-0.2681,-0.2725,-0.2728,-0.273,0,0,0,0,0,0,-0.2853,-0.2854,-0.2863,-0.2859,-0.286,-0.2838,-0.2839,-0.2833,-0.2827,-0.2787,-0.2775,-0.2805,-0.2738,-0.273,-0.2724,-0.2741,-0.2682,-0.268,-0.2723,-0.2726,-0.2729,-0.2802,0,0,0,0,0,0,-0.2852,-0.2854,-0.2855,-0.2859,-0.286,-0.2889,-0.2841,-0.2836,-0.2833,-0.2825,-0.278,-0.2769,-0.2735,-0.2726,-0.2722,-0.2738,-0.2679,-0.272,-0.2724,-0.2728,-0.2797,-0.2807,-0.2816,0,0,0,0,0,-0.2852,-0.2866,-0.2855,-0.2856,-0.2862,-0.2891,-0.2893,-0.2868,-0.2835,-0.2848,-0.2816,-0.2769,-0.2748,-0.2727,-0.2722,-0.2737,-0.2718,-0.2723,-0.2728,-0.2793,-0.2805,-0.2816,0,0,0,0,0,0,-0.2861,-0.2861,-0.2849,-0.286,-0.2875,-0.2879,-0.2884,-0.2873,-0.2863,-0.2846,-0.2797,-0.2786,-0.2789,-0.2764,-0.2743,-0.2766,-0.2726,-0.273,-0.2777,-0.2788,-0.2798,-0.2766,-0.2678,0,0,0,0,0,-0.2867,-0.2871,-0.2881,-0.2889,-0.2896,-0.2892,-0.2898,-0.289,-0.2882,-0.2874,-0.2844,-0.2818,-0.2813,-0.2798,-0.279,-0.2804,-0.2744,-0.2813,-0.2822,-0.283,-0.2805,-0.2755,-0.2757,-0.2746,-0.2746,-0.2746,0,0,-0.2872,-0.2872,-0.2873,-0.2891,-0.2893,-0.2918,-0.2888,-0.2905,-0.2919,-0.2866,-0.2866,-0.2852,-0.2827,-0.2841,-0.2839,-0.2814,-0.2805,-0.2836,-0.2843,-0.2812,-0.276,-0.276,-0.2761,-0.2749,-0.2748,-0.2748,0,0,-0.2893,-0.2885,-0.29,-0.2916,-0.2931,-0.2937,-0.2943,-0.2953,-0.2946,-0.2964,-0.2928,-0.2924,-0.2914,-0.2899,-0.289,-0.2951,-0.2862,-0.2954,-0.2966,-0.292,-0.2919,-0.2918,-0.2845,-0.2836,-0.2952,-0.2953,-0.2953,0,-0.2898,-0.2911,-0.2913,-0.2938,-0.2944,-0.2945,-0.297,-0.2983,-0.299,-0.2986,-0.2967,-0.2951,-0.294,-0.2937,-0.2961,-0.2968,-0.2911,-0.2922,-0.2928,-0.2925,-0.2922,-0.2848,-0.2837,-0.2957,-0.2956,-0.2956,-0.2955,0,-0.2935,-0.2944,-0.2955,-0.2977,-0.2998,-0.3017,-0.3037,-0.3054,-0.3044,-0.3044,-0.304,-0.3025,-0.3005,-0.3018,-0.3005,-0.2992,-0.2948,-0.2949,-0.2889,-0.2927,-0.2848,-0.2835,-0.2962,-0.2961,-0.296,-0.2959,0,0,-0.2928,-0.2971,-0.2969,-0.2975,-0.3012,-0.3027,-0.3068,-0.309,-0.3085,-0.3096,-0.3074,-0.3092,-0.3066,-0.3054,-0.3038,-0.2999,-0.2951,-0.2963,-0.2958,-0.2872,-0.2814,-0.2543,-0.2503,-0.2943,-0.2942,-0.294,-0.2766,0,-0.2944,-0.2981,-0.3007,-0.3035,-0.3045,-0.307,-0.3099,-0.3123,-0.3123,-0.311,-0.3095,-0.3074,-0.3086,-0.3062,-0.3037,-0.2982,-0.292,-0.2996,-0.2804,-0.2798,-0.2537,-0.248,-0.2227,-0.2028,-0.2753,-0.2751,-0.275,0,-0.295,-0.2971,-0.3,-0.3031,-0.3039,-0.3064,-0.3078,-0.3107,-0.3114,-0.3111,-0.3096,-0.3071,-0.3047,-0.303,-0.2935,-0.2978,-0.2891,-0.2831,-0.2823,-0.2524,-0.2501,-0.2109,-0.1977,-0.1982,-0.2729,-0.2731,-0.2732,0,-0.2894,-0.2952,-0.2963,-0.2975,-0.3027,-0.3042,-0.3069,-0.3094,-0.3089,-0.309,-0.3061,-0.3049,-0.2996,-0.2934,-0.2813,-0.2881,-0.2639,-0.2732,-0.2393,-0.2375,-0.2091,-0.2047,-0.1913,-0.2606,-0.2606,-0.2607,-0.2607,0,-0.2862,-0.2863,-0.2934,-0.2929,-0.2941,-0.2998,-0.2992,-0.3028,-0.3032,-0.2998,-0.3037,-0.2974,-0.296,-0.2827,-0.2767,-0.2487,-0.2602,-0.2341,-0.2289,-0.2109,-0.2071,-0.2006,-0.2133,-0.26,-0.2602,-0.2603,-0.2604,0,-0.2766,-0.2815,-0.283,-0.2893,-0.2904,-0.2908,-0.2935,-0.2919,-0.2955,-0.2903,-0.2895,-0.2885,-0.2704,-0.2594,-0.244,-0.2361,-0.2097,-0.2029,-0.1787,-0.1706,-0.1436,-0.1576,-0.1421,-0.1389,-0.1684,-0.1676,-0.1669,0,-0.2709,-0.2706,-0.2776,-0.2771,-0.2788,-0.2803,-0.2794,-0.2859,-0.2847,-0.2827,-0.2786,-0.2611,-0.24,-0.2046,-0.1836,-0.1565,-0.1709,-0.1237,-0.1323,-0.1312,-0.1438,-0.1614,-0.1619,-0.1005,-0.0993,-0.0984,-0.0976,0,-0.2582,-0.2616,-0.2625,-0.2632,-0.2629,-0.2639,-0.2649,-0.2631,-0.2681,-0.2611,-0.2458,-0.2268,-0.1872,-0.1399,-0.1034,-0.0951,-0.1209,-0.1028,-0.1093,-0.0913,-0.1024,-0.1002,-0.1251,-0.0891,-0.0899,-0.0906,-0.091,-0.0914,-0.2461,-0.2452,-0.2462,-0.2454,-0.2463,-0.2445,-0.2384,-0.2372,-0.2288,-0.2092,-0.2073,-0.1614,-0.1047,-0.0462,-0.0454,-0.0226,-0.0528,-0.0204,-0.0382,-0.0567,-0.0498,-0.0512,-0.0048,-0.0052,-0.0055,-0.0058,-0.006,0,-0.2283,-0.2276,-0.2268,-0.2262,-0.2221,-0.2282,-0.2242,-0.2117,-0.1924,-0.1655,-0.1375,-0.0575,-0.0002,0.0265,0.0652,0.052,0.0232,0.0331,0.0077,0.0031,0.0021,0.0096,0.0707,0.0707,0.0707,0.0707,0.0707,0.0707,-0.217,-0.2095,-0.2105,-0.1993,-0.1998,-0.1868,-0.1806,-0.1603,-0.1359,-0.0759,-0.0251,0.0065,0.0519,0.0959,0.1027,0.0861,0.049,0.0444,0.0193,0.0124,0.0055,-0.001,0.0037,0.0625,0.0625,0.0324,0.0321,0.0319]},{"header":{"parameterUnit":"m.s-1","parameterCategory":2,"la1":30.2991,"la2":30.254,"lo1":-89.0895,"lo2":-89.0444,"dy":0.0017,"dx":0.0017,"nx":28,"ny":28,"refTime":"2024-07-22T03:00:00:Z","depth":"0","parameterNumber":3,"parameterNumberName":"V-component_of_CURRENTS"},"data":[0,0,0,0,0,0,0,0,0,0,0,0,0,0,0,0,0,0,0,0,0,0,0,0,0,0,0,0,0,0,0,0,0,0,0,0,0,0,0,0,0,0,0,0,0,0,0,0,0,0,0,0,0,0,0,0,0,0,-0.0775,-0.0774,0,-0.0655,-0.0654,-0.0653,-0.0582,-0.0582,-0.0581,-0.0581,-0.0419,-0.0415,-0.0411,0,0,0,0,0,0,0,0,0,0,0,0,0,-0.0858,-0.0857,-0.0775,-0.0774,-0.0772,-0.0655,-0.0654,-0.0652,-0.0582,-0.0582,-0.0581,-0.0581,-0.0421,-0.0416,-0.0411,0,0,0,0,0,0,0,0,0,0,0,0,0,-0.0789,-0.0857,-0.0775,-0.0723,-0.0717,-0.0656,-0.0654,-0.0652,-0.0582,-0.0582,-0.0581,-0.0581,-0.0422,-0.0416,-0.041,-0.0384,0,0,-0.0392,-0.039,0,0,0,0,0,0,0,0,-0.0793,-0.0786,-0.0732,-0.0726,-0.0719,-0.0633,-0.0623,-0.056,-0.0582,-0.0634,-0.0581,-0.058,-0.0487,-0.0475,-0.0455,-0.0377,-0.037,-0.0392,-0.0388,-0.0385,-0.0384,0,0,0,0,0,0,0,-0.0798,-0.0791,-0.0728,-0.073,-0.0723,-0.0675,-0.0666,-0.0611,-0.0565,-0.0629,-0.0624,-0.061,-0.0483,-0.0462,-0.0451,-0.0367,-0.0392,-0.0387,-0.0383,-0.0381,-0.0227,-0.0227,0,0,0,0,0,0,-0.0817,-0.0796,-0.0732,-0.0725,-0.0755,-0.0675,-0.0664,-0.0661,-0.0566,-0.0551,-0.061,-0.0607,-0.0472,-0.0458,-0.0445,-0.0403,-0.0386,-0.038,-0.0376,-0.0228,-0.0227,-0.0227,0,0,0,0,0,0,-0.0819,-0.0813,-0.0737,-0.0756,-0.0743,-0.0674,-0.0672,-0.0659,-0.0636,-0.0552,-0.0536,-0.0599,-0.0471,-0.0453,-0.0388,-0.0397,-0.0377,-0.0372,-0.0228,-0.0228,-0.0227,-0.0323,0,0,0,0,0,0,-0.0823,-0.0815,-0.0815,-0.0758,-0.0743,-0.0711,-0.0672,-0.0657,-0.0627,-0.0622,-0.0537,-0.0521,-0.0469,-0.0397,-0.0382,-0.0388,-0.0367,-0.0229,-0.0228,-0.0227,-0.032,-0.0326,-0.033,0,0,0,0,0,-0.0826,-0.0828,-0.0816,-0.0808,-0.0747,-0.0711,-0.07,-0.0648,-0.0628,-0.0624,-0.0556,-0.0524,-0.0381,-0.0392,-0.0374,-0.0379,-0.0229,-0.0228,-0.0227,-0.0318,-0.0325,-0.033,0,0,0,0,0,0,-0.0854,-0.0819,-0.0805,-0.0794,-0.0762,-0.07,-0.0683,-0.0655,-0.0599,-0.0586,-0.0513,-0.0492,-0.0438,-0.039,-0.0405,-0.0329,-0.0302,-0.0297,-0.0377,-0.0382,-0.0387,-0.043,-0.0362,0,0,0,0,0,-0.0866,-0.0864,-0.082,-0.0812,-0.0798,-0.0745,-0.0721,-0.0691,-0.0635,-0.0611,-0.0548,-0.0479,-0.042,-0.0388,-0.0326,-0.0286,-0.0262,-0.0276,-0.0281,-0.0286,-0.0307,-0.0301,-0.0308,-0.0223,-0.0223,-0.0223,0,0,-0.0875,-0.0854,-0.0852,-0.0819,-0.0787,-0.0776,-0.073,-0.07,-0.0688,-0.06,-0.0556,-0.049,-0.041,-0.0363,-0.0335,-0.0325,-0.0288,-0.0284,-0.0289,-0.0308,-0.0301,-0.0309,-0.0317,-0.0222,-0.0222,-0.0223,0,0,-0.0896,-0.0875,-0.0884,-0.0862,-0.0823,-0.0794,-0.0792,-0.0734,-0.0706,-0.0655,-0.059,-0.0537,-0.0438,-0.0395,-0.0358,-0.0352,-0.0311,-0.0324,-0.0389,-0.0382,-0.0391,-0.0398,-0.0349,-0.0351,-0.0332,-0.0332,-0.0332,0,-0.0909,-0.0915,-0.0879,-0.0878,-0.0868,-0.081,-0.0819,-0.078,-0.0707,-0.0694,-0.0651,-0.0538,-0.046,-0.0431,-0.0415,-0.0368,-0.0344,-0.0379,-0.0394,-0.04,-0.0406,-0.0354,-0.0356,-0.0336,-0.0336,-0.0335,-0.0335,0,-0.0936,-0.0939,-0.0939,-0.093,-0.0916,-0.0909,-0.0864,-0.0843,-0.0799,-0.0759,-0.0714,-0.0618,-0.0559,-0.0521,-0.0456,-0.0458,-0.0418,-0.0403,-0.0393,-0.0422,-0.0363,-0.0363,-0.0343,-0.0341,-0.034,-0.0339,0,0,-0.0969,-0.0966,-0.0965,-0.0985,-0.0947,-0.0946,-0.093,-0.0913,-0.0916,-0.084,-0.084,-0.0734,-0.0691,-0.0647,-0.0575,-0.056,-0.0544,-0.05,-0.0497,-0.0475,-0.0505,-0.0352,-0.0336,-0.0542,-0.0543,-0.0544,-0.0438,0,-0.1004,-0.1041,-0.1018,-0.1052,-0.1072,-0.1031,-0.1033,-0.1006,-0.0958,-0.0934,-0.0859,-0.0817,-0.0737,-0.071,-0.0683,-0.058,-0.0553,-0.0573,-0.046,-0.0456,-0.0338,-0.0334,-0.0203,-0.0088,-0.0437,-0.0437,-0.0437,0,-0.1036,-0.1063,-0.1113,-0.1147,-0.1151,-0.1162,-0.1175,-0.1162,-0.1111,-0.1073,-0.1031,-0.0956,-0.0902,-0.0832,-0.0722,-0.074,-0.063,-0.0555,-0.0549,-0.0381,-0.0303,-0.0118,-0.0074,-0.0017,-0.0436,-0.0436,-0.0436,0,-0.1095,-0.1127,-0.1184,-0.1188,-0.121,-0.1234,-0.1241,-0.1212,-0.1208,-0.1162,-0.1147,-0.108,-0.1022,-0.0933,-0.0725,-0.0741,-0.0585,-0.0589,-0.0354,-0.034,-0.0192,-0.0163,-0.0102,-0.0524,-0.0524,-0.0524,-0.0525,0,-0.1142,-0.1182,-0.1224,-0.1252,-0.133,-0.1312,-0.1363,-0.1351,-0.1324,-0.1299,-0.1229,-0.1175,-0.1047,-0.0915,-0.0767,-0.0528,-0.0614,-0.0362,-0.031,-0.0212,-0.0188,-0.0101,-0.0121,-0.052,-0.0521,-0.0522,-0.0523,0,-0.119,-0.1209,-0.1284,-0.1339,-0.1359,-0.1415,-0.1442,-0.1462,-0.1434,-0.1396,-0.1385,-0.1252,-0.1056,-0.0887,-0.0685,-0.0547,-0.0276,-0.0248,-0.0108,-0.0041,0.0204,0.0175,0.0269,0.036,-0.0019,-0.0015,-0.0011,0,-0.121,-0.126,-0.1356,-0.1403,-0.143,-0.1495,-0.1528,-0.152,-0.1506,-0.1404,-0.1373,-0.1193,-0.0957,-0.0611,-0.0361,-0.0083,-0.0062,0.0174,0.0162,0.0243,0.0246,0.0192,0.0256,0.0331,0.0337,0.0342,0.0346,0,-0.126,-0.1305,-0.1371,-0.1475,-0.1532,-0.1586,-0.1608,-0.1592,-0.1527,-0.1392,-0.1163,-0.0967,-0.0651,-0.0246,0.0074,0.0234,0.0239,0.0287,0.0314,0.0482,0.048,0.0587,0.0252,0.0391,0.0387,0.0383,0.0381,0.0379,-0.1287,-0.1363,-0.145,-0.1543,-0.1607,-0.1614,-0.1545,-0.1472,-0.1312,-0.0928,-0.0858,-0.0316,-0.0064,0.0435,0.0507,0.0742,0.0613,0.0824,0.0773,0.0703,0.0813,0.0608,0.0838,0.0837,0.0835,0.0834,0.0832,0,-0.1312,-0.1398,-0.1498,-0.1585,-0.1628,-0.1649,-0.1544,-0.1348,-0.0998,-0.054,-0.0126,0.0642,0.0882,0.1015,0.1185,0.1228,0.1183,0.123,0.1147,0.1184,0.0975,0.1015,0.1365,0.1365,0.1365,0.1365,0.1365,0.1365,-0.1322,-0.1431,-0.1496,-0.1571,-0.1602,-0.1465,-0.1327,-0.0949,-0.0532,0.0402,0.1129,0.1585,0.173,0.1453,0.1448,0.1479,0.1492,0.1476,0.1443,0.1254,0.121,0.1167,0.1201,0.1584,0.1584,0.171,0.1711,0.1712]}],[{"header":{"parameterUnit":"m.s-1","parameterCategory":2,"la1":30.2991,"la2":30.254,"lo1":-89.0895,"lo2":-89.0444,"dy":0.0017,"dx":0.0017,"nx":28,"ny":28,"refTime":"2024-07-22T03:00:00:Z","depth":"2","parameterNumber":2,"parameterNumberName":"U-component_of_CURRENTS"},"data":[0,0,0,0,0,0,0,0,0,0,0,0,0,0,0,0,0,0,0,0,0,0,0,0,0,0,0,0,0,0,0,0,0,0,0,0,0,0,0,0,0,0,0,0,0,0,0,0,0,0,0,0,0,0,0,0,0,0,-0.1823,-0.1823,0,-0.1844,-0.1844,-0.1845,-0.1895,-0.1896,-0.1897,-0.1898,-0.1969,-0.197,-0.1971,0,0,0,0,0,0,0,0,0,0,0,0,0,-0.1747,-0.1749,-0.1823,-0.1823,-0.1823,-0.1844,-0.1844,-0.1845,-0.1895,-0.1896,-0.1897,-0.1898,-0.1968,-0.1969,-0.1971,0,0,0,0,0,0,0,0,0,0,0,0,0,-0.1777,-0.1749,-0.1823,-0.185,-0.1852,-0.1844,-0.1844,-0.1845,-0.1895,-0.1896,-0.1898,-0.1899,-0.1968,-0.1969,-0.1971,-0.1953,0,0,-0.1976,-0.1976,0,0,0,0,0,0,0,0,-0.1775,-0.178,-0.1846,-0.1848,-0.1851,-0.1867,-0.1843,-0.1883,-0.1895,-0.188,-0.1898,-0.19,-0.1937,-0.1941,-0.1944,-0.1956,-0.1959,-0.1976,-0.1977,-0.1977,-0.1978,0,0,0,0,0,0,0,-0.1773,-0.1779,-0.1833,-0.1846,-0.1849,-0.1833,-0.184,-0.185,-0.1903,-0.1882,-0.1885,-0.1884,-0.1939,-0.1942,-0.1946,-0.196,-0.1976,-0.1977,-0.1978,-0.1979,-0.1941,-0.1939,0,0,0,0,0,0,-0.177,-0.1777,-0.1832,-0.1833,-0.1814,-0.1834,-0.1841,-0.1862,-0.1902,-0.1909,-0.1883,-0.1887,-0.1939,-0.1944,-0.1949,-0.1928,-0.1977,-0.1979,-0.198,-0.1943,-0.1941,-0.1939,0,0,0,0,0,0,-0.1769,-0.1776,-0.1831,-0.1803,-0.1809,-0.1834,-0.1856,-0.1861,-0.1881,-0.1902,-0.191,-0.19,-0.194,-0.1946,-0.1941,-0.1932,-0.1979,-0.1981,-0.1945,-0.1942,-0.194,-0.1889,0,0,0,0,0,0,-0.1767,-0.1776,-0.1784,-0.1804,-0.181,-0.1826,-0.1855,-0.1861,-0.1877,-0.1882,-0.1918,-0.1925,-0.1942,-0.1938,-0.1943,-0.1935,-0.1982,-0.1948,-0.1944,-0.1941,-0.1893,-0.1884,-0.1877,0,0,0,0,0,-0.1765,-0.1772,-0.1785,-0.179,-0.1824,-0.1825,-0.1827,-0.1849,-0.1876,-0.1875,-0.1886,-0.1925,-0.1919,-0.1938,-0.1943,-0.1936,-0.195,-0.1945,-0.1941,-0.1896,-0.1886,-0.1877,0,0,0,0,0,0,-0.1745,-0.1778,-0.1793,-0.1811,-0.1816,-0.1833,-0.1841,-0.1853,-0.1862,-0.1873,-0.1901,-0.1907,-0.1891,-0.1915,-0.1935,-0.1909,-0.1941,-0.1937,-0.1905,-0.1896,-0.1888,-0.1918,-0.1983,0,0,0,0,0,-0.1743,-0.1754,-0.1779,-0.1787,-0.1804,-0.1824,-0.1829,-0.1838,-0.1849,-0.1857,-0.1884,-0.1894,-0.1873,-0.1888,-0.1878,-0.1877,-0.1901,-0.1873,-0.1865,-0.1858,-0.1883,-0.19,-0.1897,-0.1925,-0.1925,-0.1925,0,0,-0.173,-0.1752,-0.1755,-0.1781,-0.1802,-0.1798,-0.1833,-0.1841,-0.1827,-0.1861,-0.1869,-0.1865,-0.186,-0.184,-0.1838,-0.1868,-0.1852,-0.1853,-0.1848,-0.1876,-0.1896,-0.1894,-0.1892,-0.1922,-0.1922,-0.1923,0,0,-0.1696,-0.1747,-0.1738,-0.1748,-0.1766,-0.1781,-0.1786,-0.1813,-0.1826,-0.1807,-0.1818,-0.1812,-0.1808,-0.1804,-0.1796,-0.1743,-0.1796,-0.1742,-0.1751,-0.1766,-0.1766,-0.1765,-0.1752,-0.1752,-0.1757,-0.1757,-0.1757,0,-0.1676,-0.1689,-0.173,-0.1723,-0.1739,-0.1776,-0.1771,-0.1771,-0.1782,-0.1801,-0.18,-0.1791,-0.1785,-0.1765,-0.1739,-0.1729,-0.1746,-0.1789,-0.176,-0.1761,-0.1761,-0.1749,-0.1749,-0.1754,-0.1754,-0.1754,-0.1755,0,-0.163,-0.1646,-0.1653,-0.1666,-0.1676,-0.1686,-0.1702,-0.172,-0.1743,-0.1748,-0.1745,-0.1728,-0.1739,-0.1716,-0.1709,-0.171,-0.1719,-0.1735,-0.1793,-0.1756,-0.1743,-0.1744,-0.1749,-0.175,-0.1751,-0.1752,0,0,-0.159,-0.1615,-0.1618,-0.1633,-0.1662,-0.1671,-0.167,-0.1695,-0.1714,-0.1709,-0.1728,-0.1679,-0.1712,-0.1704,-0.1703,-0.1716,-0.1701,-0.1738,-0.1741,-0.1741,-0.1727,-0.1557,-0.1542,-0.1728,-0.1729,-0.1729,-0.1702,0,-0.1554,-0.1536,-0.1562,-0.1562,-0.1579,-0.163,-0.1631,-0.1649,-0.1673,-0.1696,-0.1696,-0.1691,-0.1692,-0.1696,-0.1708,-0.171,-0.1709,-0.1707,-0.175,-0.1751,-0.1619,-0.1539,-0.1429,-0.1381,-0.1703,-0.1703,-0.1703,0,-0.1504,-0.1519,-0.1503,-0.1558,-0.1575,-0.1567,-0.1635,-0.1633,-0.1668,-0.1689,-0.1711,-0.1718,-0.1725,-0.1721,-0.1737,-0.1745,-0.1735,-0.1731,-0.173,-0.1603,-0.1583,-0.1476,-0.1371,-0.1705,-0.1705,-0.1705,-0.1705,0,-0.1465,-0.1487,-0.1484,-0.1495,-0.1541,-0.1561,-0.1593,-0.1635,-0.165,-0.1689,-0.1695,-0.1732,-0.1724,-0.175,-0.172,-0.1751,-0.1717,-0.1759,-0.1592,-0.158,-0.1509,-0.1487,-0.176,-0.176,-0.176,-0.176,-0.176,0,-0.1426,-0.1433,-0.1466,-0.147,-0.1494,-0.1538,-0.1562,-0.1603,-0.1641,-0.1639,-0.1688,-0.1671,-0.1736,-0.1715,-0.1721,-0.1627,-0.1716,-0.1575,-0.1557,-0.1477,-0.1454,-0.1772,-0.1773,-0.1759,-0.1759,-0.1759,-0.176,0,-0.1363,-0.138,-0.1392,-0.1448,-0.1464,-0.1478,-0.1532,-0.1545,-0.1592,-0.1585,-0.1592,-0.1632,-0.1597,-0.1604,-0.1616,-0.1582,-0.154,-0.148,-0.1353,-0.1318,-0.1406,-0.1405,-0.1331,-0.1325,-0.1319,-0.1315,-0.1311,0,-0.1319,-0.1311,-0.1358,-0.1362,-0.1384,-0.1415,-0.1428,-0.1503,-0.1503,-0.1533,-0.1507,-0.149,-0.1433,-0.1361,-0.1306,-0.1247,-0.1355,-0.1108,-0.1132,-0.137,-0.1361,-0.1368,-0.1375,-0.102,-0.1014,-0.1009,-0.1005,0,-0.1253,-0.1263,-0.1274,-0.1283,-0.1295,-0.1312,-0.1334,-0.1328,-0.1385,-0.1385,-0.1349,-0.1315,-0.1209,-0.1098,-0.0993,-0.0946,-0.1115,-0.1002,-0.13,-0.1116,-0.1065,-0.106,-0.1079,-0.0963,-0.0967,-0.097,-0.0973,-0.0974,-0.1196,-0.1184,-0.1188,-0.1189,-0.1201,-0.1184,-0.1148,-0.1164,-0.1151,-0.111,-0.1158,-0.1076,-0.1068,-0.0843,-0.0745,-0.0652,-0.0759,-0.0764,-0.0785,-0.0809,-0.0748,-0.0688,-0.0503,-0.0504,-0.0506,-0.0507,-0.0508,0,-0.1115,-0.1102,-0.1096,-0.1082,-0.1039,-0.1084,-0.1057,-0.0997,-0.0921,-0.092,-0.0876,-0.077,-0.0677,-0.0649,-0.0445,-0.0377,-0.0424,-0.0346,-0.0466,-0.0505,-0.0541,-0.0474,-0.0152,-0.0151,-0.015,-0.015,0,0,-0.107,-0.1026,-0.1018,-0.0916,-0.0894,-0.078,-0.0731,-0.0675,-0.0638,-0.0567,-0.0546,-0.064,-0.0643,-0.0464,-0.0366,-0.0234,-0.0363,-0.0175,-0.0456,-0.0636,-0.0672,-0.0763,-0.0698,0,0,0,0,0]},{"header":{"parameterUnit":"m.s-1","parameterCategory":2,"la1":30.2991,"la2":30.254,"lo1":-89.0895,"lo2":-89.0444,"dy":0.0017,"dx":0.0017,"nx":28,"ny":28,"refTime":"2024-07-22T03:00:00:Z","depth":"2","parameterNumber":3,"parameterNumberName":"V-component_of_CURRENTS"},"data":[0,0,0,0,0,0,0,0,0,0,0,0,0,0,0,0,0,0,0,0,0,0,0,0,0,0,0,0,0,0,0,0,0,0,0,0,0,0,0,0,0,0,0,0,0,0,0,0,0,0,0,0,0,0,0,0,0,0,-0.0467,-0.0466,0,-0.0376,-0.0375,-0.0374,-0.0362,-0.0363,-0.0364,-0.0365,-0.0192,-0.0187,-0.0181,0,0,0,0,0,0,0,0,0,0,0,0,0,-0.0552,-0.0551,-0.0467,-0.0466,-0.0464,-0.0376,-0.0375,-0.0374,-0.0362,-0.0363,-0.0364,-0.0365,-0.0194,-0.0187,-0.0181,0,0,0,0,0,0,0,0,0,0,0,0,0,-0.0494,-0.0551,-0.0467,-0.0448,-0.0446,-0.0376,-0.0375,-0.0373,-0.0362,-0.0363,-0.0365,-0.0366,-0.0196,-0.0188,-0.018,-0.0103,0,0,-0.0155,-0.0151,0,0,0,0,0,0,0,0,-0.0497,-0.049,-0.0452,-0.0449,-0.0446,-0.0382,-0.0341,-0.0279,-0.0362,-0.0393,-0.0365,-0.0366,-0.0247,-0.0235,-0.0215,-0.0094,-0.0087,-0.0154,-0.0149,-0.0146,-0.0143,0,0,0,0,0,0,0,-0.0501,-0.0494,-0.0431,-0.0451,-0.0447,-0.0418,-0.0412,-0.0329,-0.0312,-0.0391,-0.039,-0.038,-0.0245,-0.0223,-0.0211,-0.0084,-0.0154,-0.0147,-0.0142,-0.0139,0.0038,0.0038,0,0,0,0,0,0,-0.0515,-0.0498,-0.0433,-0.0428,-0.0476,-0.0415,-0.0408,-0.0401,-0.0315,-0.0304,-0.0379,-0.0379,-0.0237,-0.0221,-0.0205,-0.0159,-0.0146,-0.0138,-0.0133,0.0038,0.0038,0.0038,0,0,0,0,0,0,-0.0517,-0.051,-0.0437,-0.0461,-0.045,-0.0413,-0.0404,-0.0399,-0.0383,-0.0306,-0.0294,-0.037,-0.0237,-0.0216,-0.0165,-0.0151,-0.0134,-0.0127,0.0039,0.0038,0.0038,-0.0035,0,0,0,0,0,0,-0.052,-0.0512,-0.0517,-0.0462,-0.0449,-0.0414,-0.0403,-0.0396,-0.0374,-0.0375,-0.0294,-0.0279,-0.0237,-0.0178,-0.0157,-0.0139,-0.0121,0.0039,0.0038,0.0038,-0.0032,-0.0037,-0.0042,0,0,0,0,0,-0.0524,-0.0531,-0.0518,-0.051,-0.0455,-0.0414,-0.0405,-0.0383,-0.0373,-0.0372,-0.0331,-0.0282,-0.0165,-0.0171,-0.0146,-0.0126,0.0039,0.0039,0.0038,-0.003,-0.0036,-0.0042,0,0,0,0,0,0,-0.0571,-0.0528,-0.0513,-0.0508,-0.047,-0.0413,-0.0407,-0.0381,-0.0345,-0.0345,-0.0278,-0.026,-0.0216,-0.0159,-0.0167,-0.008,-0.0055,-0.0051,-0.0116,-0.0121,-0.0126,-0.0129,-0.0114,0,0,0,0,0,-0.0581,-0.0577,-0.0526,-0.052,-0.0503,-0.0451,-0.0432,-0.0411,-0.0368,-0.0354,-0.0296,-0.0238,-0.0194,-0.0152,-0.0104,-0.0036,0.0019,-0.001,-0.0015,-0.002,-0.0008,0.0051,0.0052,0.0037,0.0037,0.0037,0,0,-0.0597,-0.0573,-0.057,-0.053,-0.0497,-0.0471,-0.0444,-0.0416,-0.0395,-0.0335,-0.0291,-0.0253,-0.0186,-0.0139,-0.011,-0.0087,0.0015,-0.002,-0.0025,-0.0009,0.005,0.0052,0.0053,0.0036,0.0036,0.0036,0,0,-0.0613,-0.0603,-0.0597,-0.0569,-0.0524,-0.0493,-0.0486,-0.0425,-0.0405,-0.0357,-0.0324,-0.0283,-0.019,-0.0149,-0.0115,-0.0107,-0.0027,-0.0088,-0.0092,-0.0037,-0.0035,-0.0032,0.0045,0.0055,-0.0074,-0.0074,-0.0074,0,-0.0631,-0.0615,-0.0589,-0.0569,-0.0549,-0.0504,-0.0485,-0.0453,-0.0385,-0.036,-0.0358,-0.0248,-0.0196,-0.0136,-0.0147,-0.0116,-0.0066,-0.0077,-0.0043,-0.004,-0.0036,0.0043,0.0055,-0.0078,-0.0077,-0.0077,-0.0077,0,-0.063,-0.062,-0.0614,-0.0578,-0.0558,-0.0536,-0.0489,-0.0462,-0.0432,-0.0391,-0.0336,-0.0279,-0.0213,-0.0192,-0.0164,-0.0107,-0.0075,-0.0072,-0.003,-0.0039,0.0045,0.0058,-0.0083,-0.0082,-0.0081,-0.008,0,0,-0.0654,-0.062,-0.0618,-0.0609,-0.0561,-0.0546,-0.0514,-0.0467,-0.0446,-0.0387,-0.0348,-0.0283,-0.0251,-0.0211,-0.0166,-0.0109,-0.0046,-0.0079,-0.0074,-0.0005,0.0097,0.0061,0.0073,-0.0042,-0.004,-0.0039,0.0147,0,-0.0655,-0.0639,-0.0617,-0.0603,-0.0589,-0.0551,-0.0529,-0.0487,-0.0446,-0.04,-0.0334,-0.0288,-0.0257,-0.0233,-0.0174,-0.0079,-0.0015,-0.0095,0.0099,0.0106,0.0071,0.0086,0.0056,0.0213,0.0161,0.0163,0.0165,0,-0.0651,-0.0646,-0.0635,-0.0619,-0.061,-0.0599,-0.0565,-0.0539,-0.0469,-0.0436,-0.0375,-0.0322,-0.0225,-0.0218,-0.0039,-0.0092,-0.0003,0.0071,0.0079,0.0083,0.0094,0.0213,0.024,0.0188,0.0186,0.0185,0.0183,0,-0.0678,-0.0658,-0.0658,-0.0648,-0.0621,-0.0614,-0.0603,-0.0549,-0.0528,-0.0457,-0.0427,-0.0317,-0.0249,-0.0135,0.0012,-0.0006,0.0206,0.0201,0.0261,0.0262,0.0295,0.0293,0.0319,0.0319,0.0319,0.0318,0.0317,0,-0.0681,-0.0682,-0.0675,-0.0674,-0.0687,-0.0654,-0.0651,-0.0621,-0.057,-0.0533,-0.0452,-0.0383,-0.0227,-0.0092,0.0024,0.0192,0.0223,0.0274,0.0304,0.0268,0.0262,0.0282,0.0275,0.0325,0.0323,0.0322,0.0321,0,-0.0697,-0.0688,-0.0696,-0.0691,-0.0696,-0.0709,-0.07,-0.0694,-0.0636,-0.0582,-0.056,-0.0405,-0.0216,-0.006,0.0157,0.0215,0.0366,0.0412,0.0365,0.0383,0.039,0.0377,0.0514,0.0514,0.0515,0.0515,0.0515,0,-0.0697,-0.0701,-0.0725,-0.0747,-0.0747,-0.0762,-0.0774,-0.0738,-0.0718,-0.0582,-0.055,-0.0361,-0.0205,0.0089,0.0234,0.0433,0.0429,0.0478,0.0417,0.0394,0.0409,0.0396,0.0384,0.0458,0.0458,0.0458,0.0458,0,-0.0705,-0.0717,-0.0732,-0.0784,-0.0811,-0.0841,-0.0842,-0.0834,-0.0762,-0.069,-0.0521,-0.0379,-0.0085,0.0131,0.0332,0.0427,0.0433,0.0474,0.0497,0.0377,0.0345,0.0358,0.0348,0.0455,0.0455,0.0455,0.0456,0.0456,-0.0714,-0.0739,-0.077,-0.0819,-0.0862,-0.0901,-0.0921,-0.0882,-0.0837,-0.0662,-0.051,-0.0251,-0.0084,0.0243,0.0362,0.0463,0.0471,0.0475,0.0475,0.0475,0.0399,0.0365,0.0468,0.0468,0.0468,0.0469,0.0469,0,-0.0718,-0.0754,-0.0803,-0.0869,-0.0929,-0.0939,-0.0954,-0.0937,-0.087,-0.0605,-0.0406,-0.0181,0.0041,0.0241,0.0404,0.0463,0.0457,0.046,0.0444,0.0446,0.0447,0.0368,0.043,0.043,0.0431,0.0431,0,0,-0.0723,-0.0768,-0.0802,-0.0907,-0.0959,-0.1015,-0.1025,-0.097,-0.0803,-0.0532,-0.0289,-0.0043,0.0138,0.0219,0.0298,0.0396,0.0404,0.0392,0.0414,0.0387,0.0388,0.0443,0.0321,0,0,0,0,0]}],[{"header":{"parameterUnit":"m.s-1","parameterCategory":2,"la1":30.2991,"la2":30.254,"lo1":-89.0895,"lo2":-89.0444,"dy":0.0017,"dx":0.0017,"nx":28,"ny":28,"refTime":"2024-07-22T03:00:00:Z","depth":"4","parameterNumber":2,"parameterNumberName":"U-component_of_CURRENTS"},"data":[0,0,0,0,0,0,0,0,0,0,0,0,0,0,0,0,0,0,0,0,0,0,0,0,0,0,0,0,0,0,0,0,0,0,0,0,0,0,0,0,0,0,0,0,0,0,0,0,0,0,0,0,0,0,0,0,0,0,-0.1052,-0.1052,0,-0.1081,-0.1081,-0.1081,-0.1098,-0.1098,-0.1099,-0.1099,-0.1148,-0.1149,-0.1151,0,0,0,0,0,0,0,0,0,0,0,0,0,-0.0999,-0.1,-0.1052,-0.1052,-0.1053,-0.1081,-0.1081,-0.1081,-0.1098,-0.1098,-0.1099,-0.1099,-0.1148,-0.1149,-0.1151,0,0,0,0,0,0,0,0,0,0,0,0,0,-0.1023,-0.1001,-0.1052,-0.1066,-0.1067,-0.1081,-0.1081,-0.1081,-0.1098,-0.1098,-0.1099,-0.1099,-0.1148,-0.1149,-0.1151,-0.1155,0,0,-0.1156,-0.1157,0,0,0,0,0,0,0,0,-0.1022,-0.1025,-0.1063,-0.1065,-0.1067,-0.1088,-0.1081,-0.1108,-0.1098,-0.1085,-0.1099,-0.1099,-0.1131,-0.1134,-0.1136,-0.1158,-0.116,-0.1156,-0.1157,-0.1158,-0.1158,0,0,0,0,0,0,0,-0.102,-0.1024,-0.1062,-0.1064,-0.1066,-0.1067,-0.107,-0.1086,-0.1105,-0.1086,-0.1088,-0.1093,-0.1132,-0.1134,-0.1138,-0.116,-0.1156,-0.1158,-0.1159,-0.1159,-0.1195,-0.1194,0,0,0,0,0,0,-0.102,-0.1022,-0.1061,-0.1063,-0.1046,-0.1068,-0.1072,-0.1079,-0.1104,-0.1109,-0.1093,-0.1094,-0.1131,-0.1136,-0.1139,-0.1188,-0.1158,-0.116,-0.1161,-0.1195,-0.1194,-0.1194,0,0,0,0,0,0,-0.1019,-0.1023,-0.106,-0.1044,-0.1049,-0.1068,-0.1077,-0.108,-0.1099,-0.111,-0.1114,-0.1111,-0.1132,-0.1137,-0.1162,-0.1189,-0.116,-0.1162,-0.1195,-0.1195,-0.1194,-0.126,0,0,0,0,0,0,-0.1017,-0.1023,-0.1034,-0.1044,-0.105,-0.1077,-0.1077,-0.108,-0.1101,-0.1103,-0.1126,-0.113,-0.1132,-0.1159,-0.1163,-0.1191,-0.1163,-0.1195,-0.1195,-0.1194,-0.1257,-0.1262,-0.1265,0,0,0,0,0,-0.1015,-0.1024,-0.1035,-0.104,-0.1064,-0.1078,-0.1081,-0.1094,-0.1102,-0.1112,-0.1125,-0.113,-0.116,-0.1161,-0.1166,-0.1194,-0.1195,-0.1195,-0.1194,-0.1256,-0.1261,-0.1265,0,0,0,0,0,0,-0.1009,-0.1027,-0.1039,-0.1055,-0.1072,-0.1082,-0.1093,-0.1104,-0.1122,-0.113,-0.1137,-0.1142,-0.1172,-0.1166,-0.1166,-0.1198,-0.1175,-0.1176,-0.122,-0.1225,-0.1229,-0.1237,-0.1165,0,0,0,0,0,-0.1014,-0.1024,-0.1044,-0.1058,-0.1069,-0.1085,-0.1096,-0.1109,-0.1124,-0.1133,-0.1146,-0.1156,-0.1171,-0.1185,-0.1192,-0.1218,-0.1194,-0.1233,-0.1237,-0.124,-0.1247,-0.1228,-0.1232,-0.1194,-0.1194,-0.1194,0,0,-0.1013,-0.1027,-0.1033,-0.1058,-0.1072,-0.1094,-0.1093,-0.1116,-0.1141,-0.1136,-0.1171,-0.1175,-0.1179,-0.1205,-0.1217,-0.1209,-0.1236,-0.124,-0.1244,-0.1248,-0.1228,-0.1232,-0.1236,-0.1194,-0.1194,-0.1194,0,0,-0.1016,-0.1033,-0.1046,-0.1064,-0.1094,-0.1108,-0.112,-0.1142,-0.116,-0.119,-0.1192,-0.121,-0.1231,-0.1241,-0.1248,-0.1274,-0.1255,-0.1275,-0.1312,-0.1294,-0.1298,-0.1301,-0.1269,-0.1268,-0.128,-0.128,-0.128,0,-0.102,-0.1042,-0.1052,-0.1074,-0.1097,-0.1118,-0.1146,-0.1165,-0.1194,-0.1213,-0.1208,-0.1238,-0.1248,-0.1282,-0.1294,-0.1288,-0.1266,-0.1302,-0.1302,-0.1304,-0.1306,-0.1272,-0.1271,-0.1283,-0.1283,-0.1283,-0.1282,0,-0.1031,-0.1059,-0.1068,-0.1106,-0.113,-0.1157,-0.1189,-0.1217,-0.1241,-0.1258,-0.1293,-0.1297,-0.1313,-0.132,-0.1325,-0.1347,-0.1323,-0.1309,-0.1296,-0.1314,-0.1276,-0.1274,-0.1288,-0.1287,-0.1286,-0.1285,0,0,-0.1016,-0.1068,-0.1074,-0.1105,-0.1155,-0.1175,-0.1224,-0.127,-0.1299,-0.1323,-0.1349,-0.1384,-0.1381,-0.1387,-0.1388,-0.1384,-0.1383,-0.1362,-0.136,-0.1341,-0.1333,-0.1228,-0.1215,-0.1372,-0.1373,-0.1373,-0.13,0,-0.1029,-0.1076,-0.1102,-0.1156,-0.1187,-0.1228,-0.1268,-0.1313,-0.1341,-0.1365,-0.1381,-0.1399,-0.1408,-0.1414,-0.1417,-0.1386,-0.138,-0.1403,-0.1309,-0.1306,-0.122,-0.121,-0.1373,-0.1298,-0.1297,-0.1297,-0.1297,0,-0.1031,-0.1068,-0.1122,-0.1192,-0.121,-0.1245,-0.1314,-0.1351,-0.1392,-0.1411,-0.1435,-0.1434,-0.1448,-0.1437,-0.1408,-0.1422,-0.1391,-0.1363,-0.1359,-0.1237,-0.1196,-0.1276,-0.1291,-0.1292,-0.1292,-0.1292,-0.1293,0,-0.1011,-0.1082,-0.113,-0.1153,-0.1231,-0.1268,-0.131,-0.1365,-0.1391,-0.1431,-0.1435,-0.1455,-0.1442,-0.1422,-0.1378,-0.1393,-0.1317,-0.1322,-0.1198,-0.119,-0.1282,-0.1279,-0.1299,-0.1299,-0.1299,-0.1299,-0.1299,0,-0.1006,-0.1046,-0.1125,-0.1151,-0.1205,-0.1263,-0.1311,-0.1357,-0.1399,-0.1401,-0.145,-0.1432,-0.1437,-0.1396,-0.1369,-0.126,-0.1307,-0.1197,-0.1163,-0.1307,-0.1309,-0.1279,-0.1278,-0.1296,-0.1297,-0.1298,-0.1298,0,-0.0969,-0.1023,-0.108,-0.1169,-0.1195,-0.123,-0.13,-0.1319,-0.1376,-0.1372,-0.1381,-0.1403,-0.1339,-0.1323,-0.1263,-0.1218,-0.1144,-0.1099,-0.1241,-0.1217,-0.1034,-0.1037,-0.0951,-0.0946,-0.0943,-0.0939,-0.0937,0,-0.0951,-0.0978,-0.1072,-0.1095,-0.1135,-0.1191,-0.1215,-0.1293,-0.1297,-0.1329,-0.1302,-0.1277,-0.1268,-0.11,-0.1107,-0.1028,-0.1021,-0.0986,-0.1034,-0.1022,-0.0998,-0.1007,-0.1015,-0.0931,-0.093,-0.0929,-0.0928,0,-0.0915,-0.0953,-0.0995,-0.1038,-0.1073,-0.1103,-0.1139,-0.1131,-0.1186,-0.1252,-0.1182,-0.114,-0.1059,-0.101,-0.0951,-0.0906,-0.1012,-0.0948,-0.0956,-0.1001,-0.0997,-0.0979,-0.0991,-0.0915,-0.0917,-0.0918,-0.0919,0,-0.0879,-0.089,-0.0938,-0.0962,-0.0999,-0.0985,-0.1023,-0.101,-0.1027,-0.1067,-0.1031,-0.1011,-0.1031,-0.0943,-0.0888,-0.083,-0.0823,-0.081,-0.0826,-0.084,-0.0837,-0.0819,-0.0642,0,0,0,0,0,-0.0838,-0.0833,-0.0852,-0.0864,-0.089,-0.09,-0.0951,-0.0986,-0.1031,-0.0949,-0.099,-0.0913,-0.0832,-0.0833,-0.0745,-0.0826,-0.0823,-0.0721,-0.0817,-0.0844,-0.0859,-0.0866,0,0,0,0,0,0,-0.0808,-0.0827,-0.0824,-0.0765,-0.074,-0.075,-0.077,-0.0808,-0.0773,-0.0831,-0.0791,-0.0843,-0.0779,-0.0846,-0.0716,-0.0713,-0.0752,-0.0723,-0.072,-0.0836,-0.0849,-0.0861,-0.0873,0,0,0,0,0]},{"header":{"parameterUnit":"m.s-1","parameterCategory":2,"la1":30.2991,"la2":30.254,"lo1":-89.0895,"lo2":-89.0444,"dy":0.0017,"dx":0.0017,"nx":28,"ny":28,"refTime":"2024-07-22T03:00:00:Z","depth":"4","parameterNumber":3,"parameterNumberName":"V-component_of_CURRENTS"},"data":[0,0,0,0,0,0,0,0,0,0,0,0,0,0,0,0,0,0,0,0,0,0,0,0,0,0,0,0,0,0,0,0,0,0,0,0,0,0,0,0,0,0,0,0,0,0,0,0,0,0,0,0,0,0,0,0,0,0,-0.0394,-0.0394,0,-0.0375,-0.0375,-0.0374,-0.0371,-0.0371,-0.0371,-0.0371,-0.0328,-0.0327,-0.0326,0,0,0,0,0,0,0,0,0,0,0,0,0,-0.0402,-0.0402,-0.0394,-0.0394,-0.0394,-0.0375,-0.0375,-0.0374,-0.0371,-0.0371,-0.0371,-0.0371,-0.0329,-0.0327,-0.0326,0,0,0,0,0,0,0,0,0,0,0,0,0,-0.0392,-0.0402,-0.0394,-0.039,-0.039,-0.0375,-0.0375,-0.0374,-0.037,-0.0371,-0.0371,-0.0372,-0.0329,-0.0327,-0.0325,-0.0306,0,0,-0.0319,-0.0318,0,0,0,0,0,0,0,0,-0.0392,-0.0391,-0.0391,-0.0391,-0.039,-0.0376,-0.0362,-0.035,-0.037,-0.0377,-0.0371,-0.0372,-0.0343,-0.0339,-0.0334,-0.0304,-0.0302,-0.0319,-0.0318,-0.0317,-0.0316,0,0,0,0,0,0,0,-0.0393,-0.0392,-0.0386,-0.0391,-0.039,-0.0381,-0.038,-0.036,-0.0357,-0.0376,-0.0376,-0.0375,-0.0342,-0.0336,-0.0333,-0.0301,-0.0319,-0.0317,-0.0316,-0.0315,-0.0267,-0.0267,0,0,0,0,0,0,-0.0398,-0.0393,-0.0386,-0.0385,-0.0393,-0.0381,-0.038,-0.038,-0.0358,-0.0355,-0.0375,-0.0375,-0.0339,-0.0335,-0.0331,-0.0299,-0.0317,-0.0315,-0.0314,-0.0267,-0.0267,-0.0267,0,0,0,0,0,0,-0.0399,-0.0398,-0.0387,-0.0389,-0.0387,-0.0381,-0.038,-0.0379,-0.0383,-0.0357,-0.0354,-0.0382,-0.034,-0.0334,-0.0316,-0.0298,-0.0314,-0.0312,-0.0267,-0.0267,-0.0267,-0.0239,0,0,0,0,0,0,-0.0399,-0.0398,-0.0407,-0.039,-0.0387,-0.0384,-0.038,-0.0378,-0.0382,-0.0382,-0.0361,-0.0357,-0.0339,-0.0319,-0.0314,-0.0295,-0.0311,-0.0267,-0.0267,-0.0267,-0.024,-0.0238,-0.0236,0,0,0,0,0,-0.0399,-0.041,-0.0407,-0.0407,-0.0397,-0.0385,-0.0383,-0.0378,-0.0382,-0.0383,-0.0367,-0.0358,-0.0315,-0.0317,-0.0311,-0.0291,-0.0267,-0.0267,-0.0267,-0.0241,-0.0238,-0.0236,0,0,0,0,0,0,-0.0419,-0.041,-0.0407,-0.0415,-0.0403,-0.0385,-0.039,-0.0385,-0.0373,-0.0375,-0.0354,-0.0348,-0.0324,-0.0319,-0.0322,-0.0281,-0.0291,-0.029,-0.0274,-0.0271,-0.0269,-0.0271,-0.0309,0,0,0,0,0,-0.0427,-0.0433,-0.0417,-0.0424,-0.042,-0.0407,-0.0405,-0.0397,-0.0383,-0.0379,-0.0362,-0.0344,-0.0317,-0.0305,-0.0286,-0.0262,-0.0246,-0.0249,-0.0247,-0.0245,-0.0244,-0.0196,-0.0189,-0.0266,-0.0266,-0.0266,0,0,-0.0438,-0.0433,-0.0438,-0.0429,-0.0421,-0.0411,-0.0406,-0.0403,-0.0389,-0.0375,-0.0356,-0.0337,-0.0312,-0.0281,-0.027,-0.0274,-0.0218,-0.0245,-0.0243,-0.0244,-0.0195,-0.0187,-0.018,-0.0266,-0.0266,-0.0266,0,0,-0.0452,-0.0457,-0.0461,-0.045,-0.0439,-0.0426,-0.0428,-0.0408,-0.0397,-0.0376,-0.0356,-0.0326,-0.0301,-0.0264,-0.0246,-0.0225,-0.0211,-0.0229,-0.0213,-0.0166,-0.0158,-0.0152,-0.0128,-0.0119,-0.0225,-0.0225,-0.0225,0,-0.0466,-0.0465,-0.046,-0.0454,-0.0447,-0.0434,-0.0427,-0.0408,-0.0384,-0.0366,-0.0372,-0.0309,-0.0287,-0.0229,-0.0221,-0.0217,-0.0202,-0.0218,-0.0161,-0.0154,-0.0148,-0.0125,-0.0115,-0.0224,-0.0224,-0.0224,-0.0224,0,-0.0471,-0.0472,-0.0473,-0.0459,-0.0452,-0.0445,-0.0418,-0.0404,-0.0392,-0.0366,-0.0319,-0.0282,-0.0245,-0.0228,-0.0217,-0.0158,-0.0166,-0.0163,-0.0161,-0.0138,-0.0116,-0.0107,-0.0222,-0.0222,-0.0223,-0.0223,0,0,-0.0491,-0.0479,-0.0481,-0.0477,-0.0454,-0.0449,-0.0421,-0.0387,-0.0369,-0.0332,-0.0297,-0.0237,-0.022,-0.0198,-0.017,-0.0125,-0.0064,-0.0128,-0.0126,-0.0097,0.0023,0.0008,0.0016,-0.0049,-0.0047,-0.0046,0.0019,0,-0.0494,-0.0493,-0.048,-0.0474,-0.047,-0.0445,-0.0423,-0.039,-0.0359,-0.0322,-0.0261,-0.0227,-0.0206,-0.0191,-0.0135,-0.0086,-0.0039,-0.0083,-0.0012,-0.001,-0.0019,0.0027,-0.004,0.0026,0.0028,0.0029,0.0031,0,-0.0495,-0.0497,-0.0497,-0.0483,-0.048,-0.0473,-0.0442,-0.0418,-0.0354,-0.0328,-0.027,-0.0234,-0.0156,-0.0152,-0.0036,-0.0069,-0.0023,0.0018,0.0021,0.0004,-0.0008,-0.0003,0.0047,0.0046,0.0045,0.0043,0.0042,0,-0.0513,-0.0505,-0.0511,-0.0506,-0.0488,-0.0482,-0.0473,-0.0423,-0.0404,-0.0337,-0.0317,-0.0221,-0.018,-0.0099,-0.0018,-0.0028,0.0101,0.0099,0.0133,0.0131,0.0112,0.0104,0.0185,0.0185,0.0185,0.0185,0.0185,0,-0.0513,-0.0519,-0.0526,-0.0529,-0.0539,-0.0514,-0.0509,-0.048,-0.0432,-0.0402,-0.033,-0.028,-0.0164,-0.008,-0.0011,0.0089,0.011,0.0146,0.0157,0.0119,0.0112,0.0118,0.011,0.0187,0.0187,0.0186,0.0186,0,-0.0523,-0.0526,-0.0539,-0.0542,-0.0549,-0.056,-0.0555,-0.0547,-0.0497,-0.0454,-0.0437,-0.0318,-0.0203,-0.0094,0.0044,0.0093,0.0187,0.0215,0.0157,0.0161,0.0181,0.0173,0.0263,0.0263,0.0263,0.0263,0.0263,0,-0.0523,-0.0533,-0.0567,-0.059,-0.0596,-0.0611,-0.0623,-0.0589,-0.057,-0.0471,-0.0448,-0.0327,-0.0241,-0.0056,0.0058,0.0195,0.021,0.0244,0.0228,0.0192,0.0194,0.0186,0.0177,0.0264,0.0264,0.0264,0.0264,0,-0.0526,-0.0548,-0.0566,-0.062,-0.065,-0.0676,-0.0682,-0.067,-0.0611,-0.0569,-0.0448,-0.0335,-0.0196,-0.0048,0.0058,0.0156,0.0215,0.0246,0.0246,0.0232,0.0195,0.0194,0.0186,0.0264,0.0264,0.0264,0.0264,0,-0.0536,-0.0559,-0.0596,-0.0639,-0.069,-0.0722,-0.072,-0.0683,-0.0655,-0.0536,-0.0492,-0.0332,-0.0226,-0.0067,0.0034,0.0127,0.0147,0.0157,0.0162,0.0163,0.0113,0.0049,0.0097,0,0,0,0,0,-0.0537,-0.0566,-0.0611,-0.0666,-0.0721,-0.0748,-0.0749,-0.0732,-0.0671,-0.0597,-0.054,-0.0408,-0.0216,-0.0119,-0.0029,0.0022,0.0146,0.0128,0.0155,0.0268,0.0267,0.0224,0,0,0,0,0,0,-0.054,-0.0582,-0.0608,-0.0682,-0.0726,-0.0781,-0.0785,-0.0745,-0.0687,-0.0605,-0.0499,-0.0413,-0.0227,-0.0276,-0.0036,-0.0003,0.002,0.0229,0.023,0.0269,0.0268,0.0267,0.0223,0,0,0,0,0]}]]